GW4669 Weather Reports


time (UTC)temp
C
wind
direction
speed
KPH
gust
KPH
rain 1hr
cm
rain 24hr
cm
rain mn
cm
humidity
%
barometer
mb
20260504201544 22 206 11.3 19.3 0.00 0.00 0.00 33 1005.1
20260504201043 22 154 1.6 8.0 0.00 0.00 0.00 33 1005.2
20260504200538 22 277 14.5 20.9 0.00 0.00 0.00 34 1005.2
20260504200036 22 234 3.2 12.9 0.00 0.00 0.00 33 1005.1
20260504195532 22 203 14.5 29.0 0.00 0.00 0.00 34 1005.2
20260504195028 21 310 9.7 16.1 0.00 0.00 0.00 34 1005.1
20260504194525 21 319 16.1 19.3 0.00 0.00 0.00 34 1005.3
20260504194020 21 286 9.7 16.1 0.00 0.00 0.00 35 1005.4
20260504193517 21 302 9.7 32.2 0.00 0.00 0.00 37 1005.5
20260504193017 20 315 11.3 16.1 0.00 0.00 0.00 37 1005.6
20260504192514 21 215 4.8 22.5 0.00 0.00 0.00 37 1005.4
20260504192012 20 307 14.5 27.4 0.00 0.00 0.00 37 1005.7
20260504191509 21 302 9.7 24.1 0.00 0.00 0.00 38 1005.7
20260504191005 21 326 6.4 14.5 0.00 0.00 0.00 38 1005.9
20260504190501 20 220 0.0 14.5 0.00 0.00 0.00 38 1005.9
20260504185957 20 316 4.8 16.1 0.00 0.00 0.00 38 1006.2
20260504185455 20 320 9.7 27.4 0.00 0.00 0.00 39 1006.1
20260504184951 20 303 6.4 14.5 0.00 0.00 0.00 40 1005.9
20260504184447 21 196 8.0 16.1 0.00 0.00 0.00 39 1006.0
20260504183942 20 222 4.8 8.0 0.00 0.00 0.00 39 1005.9
20260504183440 20 228 1.6 14.5 0.00 0.00 0.00 41 1006.0
20260504182938 20 149 6.4 14.5 0.00 0.00 0.00 39 1006.0
20260504182434 19 174 4.8 16.1 0.00 0.00 0.00 40 1006.2
20260504181932 20 191 4.8 11.3 0.00 0.00 0.00 41 1006.1
20260504181428 20 304 0.0 17.7 0.00 0.00 0.00 40 1006.2
20260504180927 20 315 6.4 11.3 0.00 0.00 0.00 39 1006.2
20260504180426 20 240 3.2 16.1 0.00 0.00 0.00 39 1006.2
20260504175924 19 293 6.4 20.9 0.00 0.00 0.00 40 1006.3
20260504175421 19 322 6.4 25.7 0.00 0.00 0.00 39 1006.3
20260504174918 20 190 4.8 20.9 0.00 0.00 0.00 39 1006.4
20260504174415 19 312 6.4 16.1 0.00 0.00 0.00 39 1006.4
20260504173913 20 282 14.5 24.1 0.00 0.00 0.00 38 1006.4
20260504173409 20 322 4.8 16.1 0.00 0.00 0.00 38 1006.5
20260504172907 20 215 4.8 14.5 0.00 0.00 0.00 39 1006.4
20260504172403 20 325 4.8 16.1 0.00 0.00 0.00 38 1006.4
20260504171859 20 353 3.2 25.7 0.00 0.00 0.00 39 1006.3
20260504171356 18 186 4.8 16.1 0.00 0.00 0.00 39 1006.3
20260504170853 18 306 11.3 20.9 0.00 0.00 0.00 39 1006.6
20260504170350 18 243 6.4 27.4 0.00 0.00 0.00 43 1006.6
20260504160308 16 283 3.2 14.5 0.00 0.00 0.00 43 1007.5
20260504150733 16 168 6.4 14.5 0.00 0.00 0.00 43 1007.7
20260504150230 15 206 24.1 24.1 0.00 0.00 0.00 45 1007.7
20260504141159 13 170 6.4 9.7 0.00 0.00 0.00 50 1008.0
20260504140656 13 151 3.2 11.3 0.00 0.00 0.00 49 1008.5
20260504140152 13 221 4.8 9.7 0.00 0.00 0.00 49 1008.0
20260504130620 12 211 4.8 9.7 0.00 0.00 0.00 52 1008.0
20260504130117 12 196 8.0 19.3 0.00 0.00 0.00 51 1008.2
20260504110508 10 165 6.4 16.1 0.00 0.00 0.00 56 1008.5
20260504100430 8 175 4.8 8.0 0.00 0.00 0.00 63 1008.6
20260504081823 6 173 3.2 4.8 0.00 0.00 0.00 79 1008.8
20260504081320 6 166 4.8 8.0 0.00 0.00 0.00 83 1008.6
20260504080816 5 137 3.2 6.4 0.00 0.00 0.00 89 1008.5
20260504080313 5 125 3.2 6.4 0.00 0.00 0.00 91 1008.9
20260504070235 6 215 0.0 3.2 0.00 0.00 0.00 94 1008.8
20260504060155 6 136 1.6 3.2 0.00 0.00 0.00 94 1009.1
20260504050624 6 109 3.2 4.8 0.00 0.00 0.00 93 1009.6
20260504050121 6 106 1.6 3.2 0.00 0.00 0.00 93 1009.6
20260504045618 6 143 0.0 3.2 0.00 0.00 0.00 93 1009.6
20260504045112 6 153 1.6 3.2 0.00 0.00 0.00 93 1009.7
20260504044611 6 146 3.2 4.8 0.00 0.00 0.00 93 1009.7
20260504044107 6 150 3.2 4.8 0.00 0.00 0.00 93 1009.7
20260504043604 6 171 0.0 3.2 0.00 0.00 0.00 93 1009.8
20260504043102 6 174 1.6 3.2 0.00 0.00 0.00 93 1009.8
20260504042559 6 132 0.0 3.2 0.00 0.00 0.00 93 1009.9
20260504042055 6 97 0.0 1.6 0.00 0.00 0.00 92 1009.8
20260504041551 7 186 1.6 3.2 0.00 0.00 0.00 92 1009.9
20260504041048 7 106 1.6 3.2 0.00 0.00 0.00 92 1010.0
20260504040545 7 103 3.2 3.2 0.00 0.00 0.00 92 1010.1
20260504040041 7 5 1.6 4.8 0.00 0.00 0.00 92 1010.2
20260504035538 7 8 3.2 3.2 0.00 0.00 0.00 92 1009.9
20260504035035 7 146 3.2 4.8 0.00 0.00 0.00 92 1009.9
20260504034533 7 289 1.6 11.3 0.00 0.00 0.00 92 1009.7
20260504034029 7 160 3.2 4.8 0.00 0.00 0.00 91 1009.9
20260504033528 7 210 3.2 4.8 0.00 0.00 0.00 91 1009.6
20260504033024 7 63 1.6 4.8 0.00 0.00 0.00 90 1009.6
20260504032521 7 153 3.2 8.0 0.00 0.00 0.00 90 1010.2
20260504032018 7 129 1.6 4.8 0.00 0.00 0.00 89 1010.5
20260504031515 7 314 1.6 4.8 0.00 0.00 0.00 89 1010.8
20260504031011 7 224 0.0 1.6 0.00 0.00 0.00 88 1010.7
20260504030509 7 206 0.0 1.6 0.00 0.00 0.00 86 1010.3
20260504030005 7 158 1.6 4.8 0.00 0.00 0.00 84 1010.2
20260504025502 7 112 1.6 3.2 0.00 0.00 0.00 82 1010.5
20260504024958 8 125 0.0 3.2 0.00 0.00 0.00 80 1010.5
20260504024455 8 59 0.0 1.6 0.00 0.00 0.00 78 1010.6
20260504023953 8 129 1.6 3.2 0.00 0.00 0.00 75 1010.8
20260504023449 8 313 6.4 9.7 0.00 0.00 0.00 74 1010.9
20260504022944 8 134 3.2 4.8 0.00 0.00 0.00 72 1010.9
20260504022441 8 6 1.6 3.2 0.00 0.00 0.00 71 1010.9
20260504021938 9 321 3.2 4.8 0.05 0.00 0.00 67 1010.7
20260504021435 9 311 6.4 8.0 0.00 0.00 0.00 65 1010.6
20260504020932 10 275 0.0 8.0 0.00 0.00 0.00 64 1010.6
20260504020429 10 284 1.6 6.4 0.00 0.00 0.00 62 1010.5
20260504015926 10 298 6.4 17.7 0.00 0.00 0.00 61 1010.5
20260504015421 9 56 1.6 3.2 0.00 0.00 0.00 66 1010.3
20260504014917 9 241 0.0 3.2 0.00 0.00 0.00 62 1010.4
20260504014414 10 75 0.0 3.2 0.00 0.00 0.00 61 1010.2
20260504013911 10 128 0.0 4.8 0.00 0.00 0.00 58 1010.1
20260504013409 10 338 1.6 6.4 0.00 0.00 0.00 57 1010.3
20260504012905 10 310 3.2 6.4 0.00 0.00 0.00 54 1010.2
20260504012403 10 95 0.0 6.4 0.00 0.00 0.00 55 1010.1
20260504011900 10 341 6.4 8.0 0.00 0.00 0.00 53 1010.4
20260504011357 10 106 3.2 3.2 0.00 0.00 0.00 53 1010.0
20260504010853 10 296 0.0 3.2 0.00 0.00 0.00 52 1010.1
20260504010348 10 237 1.6 4.8 0.00 0.00 0.00 52 1010.0
20260504005844 10 261 0.0 3.2 0.00 0.00 0.00 51 1010.0
20260504005341 10 281 6.4 11.3 0.00 0.00 0.00 51 1010.2
20260504004839 10 205 4.8 6.4 0.00 0.00 0.00 52 1009.9
20260504004336 10 30 0.0 11.3 0.00 0.00 0.00 52 1010.0
20260504003832 10 345 0.0 8.0 0.00 0.00 0.00 53 1010.1
20260504003330 10 339 8.0 11.3 0.00 0.00 0.00 53 1010.1
20260504002826 10 352 1.6 8.0 0.00 0.00 0.00 52 1010.0
20260504002323 10 121 1.6 3.2 0.00 0.00 0.00 56 1010.2
20260504001821 10 236 0.0 3.2 0.00 0.00 0.00 52 1010.2
20260504001318 10 261 0.0 1.6 0.00 0.00 0.00 52 1010.1
20260504000815 10 130 0.0 1.6 0.00 0.00 0.00 52 1009.9
20260504000312 10 189 0.0 1.6 0.00 0.00 0.00 50 1010.0
20260503235809 10 44 0.0 1.6 0.00 0.00 0.00 48 1010.0
20260503235307 10 221 0.0 1.6 0.00 0.00 0.00 49 1010.0
20260503234804 10 223 0.0 1.6 0.00 0.00 0.00 47 1009.9
20260503234302 10 275 0.0 1.6 0.00 0.00 0.00 46 1009.6
20260503233759 11 310 3.2 6.4 0.00 0.00 0.00 43 1009.6
20260503233255 11 287 4.8 8.0 0.00 0.00 0.00 43 1009.5
20260503232752 11 328 0.0 3.2 0.00 0.00 0.00 43 1009.6
20260503232249 11 297 3.2 6.4 0.00 0.00 0.00 43 1009.4
20260503231747 11 347 3.2 8.0 0.00 0.00 0.00 42 1009.7
20260503231244 11 43 0.0 4.8 0.00 0.00 0.00 42 1009.6
20260503230740 11 306 3.2 11.3 0.00 0.00 0.00 41 1009.6
20260503230238 11 292 3.2 12.9 0.00 0.00 0.00 40 1009.6
20260503225735 11 275 0.0 8.0 0.00 0.00 0.00 41 1009.8
20260503225234 11 340 4.8 8.0 0.00 0.00 0.00 41 1009.7
20260503224732 11 317 4.8 9.7 0.00 0.00 0.00 40 1009.6
20260503224230 11 284 3.2 4.8 0.00 0.00 0.00 41 1009.7
20260503223727 11 316 4.8 11.3 0.00 0.00 0.00 40 1009.7
20260503223225 11 287 3.2 11.3 0.00 0.00 0.00 40 1009.5
20260503222721 11 251 0.0 17.7 0.00 0.00 0.00 40 1009.7
20260503222219 11 292 9.7 16.1 0.00 0.00 0.00 39 1009.6
20260503221717 11 317 8.0 14.5 0.00 0.00 0.00 38 1009.6
20260503221214 11 308 6.4 19.3 0.00 0.00 0.00 38 1009.5
20260503220705 12 310 4.8 11.3 0.00 0.00 0.00 37 1009.4
20260503220201 11 321 3.2 22.5 0.00 0.00 0.00 37 1009.5
20260503215658 12 156 1.6 22.5 0.00 0.00 0.00 37 1009.5
20260503215155 11 265 4.8 32.2 0.00 0.00 0.00 37 1009.5
20260503214654 12 323 17.7 25.7 0.00 0.00 0.00 36 1009.5
20260503214149 12 291 6.4 25.7 0.00 0.00 0.00 36 1009.6
20260503213644 11 351 3.2 8.0 0.00 0.00 0.00 39 1009.6
20260503213140 11 328 17.7 24.1 0.00 0.00 0.00 37 1009.6
20260503212637 11 286 8.0 16.1 0.00 0.00 0.00 37 1009.4
20260503212135 11 270 3.2 14.5 0.00 0.00 0.00 36 1009.5
20260503211632 11 195 3.2 32.2 0.00 0.00 0.00 36 1009.4
20260503211127 11 295 9.7 11.3 0.00 0.00 0.00 35 1009.4
20260503210623 11 271 9.7 29.0 0.00 0.00 0.00 35 1009.5
20260503210120 12 351 6.4 17.7 0.00 0.00 0.00 34 1009.4
20260503205616 11 250 3.2 11.3 0.00 0.00 0.00 35 1009.4
20260503205112 11 309 11.3 24.1 0.00 0.00 0.00 34 1009.3
20260503204609 11 316 6.4 11.3 0.00 0.00 0.00 34 1009.4
20260503204107 11 293 11.3 22.5 0.00 0.00 0.00 33 1009.6
20260503203603 11 316 3.2 17.7 0.00 0.00 0.00 33 1009.6
20260503203101 11 334 17.7 17.7 0.00 0.00 0.00 33 1009.6
20260503202558 12 313 8.0 16.1 0.00 0.00 0.00 32 1009.6
20260503202056 12 327 14.5 24.1 0.00 0.00 0.00 31 1009.3